Regional Weather Roundup
Issued by NWS

Home | Current Version | Previous Version | Text Only | Print | Product List | Glossary Off
Versions: 1 2 3 4 5 6 7 8 9 10 11 12 13 14 15 16 17 18 19 20 21 22 23 24 25 26 27 28 29 30 31 32 33 34 35 36 37 38 39 40 41 42 43 44 45 46 47 48 49 50

000
ASUS43 KLMK 212310
RWRKY
KENTUCKY REGIONAL WEATHER ROUNDUP
NATIONAL WEATHER SERVICE LOUISVILLE KY
700 PM EDT SAT OCT 21 2017

NOTE "FAIR" INDICATES FEW OR NO CLOUDS BELOW 12,000 FEET
WITH NO SIGNIFICANT WEATHER AND/OR OBSTRUCTIONS TO VISIBILITY.

KYZ001>023-026-027-061>063-070>075-220000-
WESTERN AND SOUTH CENTRAL KENTUCKY

CITY           SKY/WX    TMP DP  RH WIND       PRES   REMARKS
PADUCAH        PTCLDY    76  57  51 SE9       30.07S
HENDERSON      CLOUDY    74  56  53 SE7       30.12S
OWENSBORO      MOCLDY    73  55  53 SE10      30.14R
HOPKINSVILLE   CLEAR     77  52  41 S3        30.16S
BOWLING GREEN  CLEAR     68  57  68 SE5       30.17S
GLASGOW        CLEAR     68  52  56 CALM      30.18S
$$

KYZ024-025-028>034-038-045-046-053-220000-
NORTH CENTRAL KENTUCKY

CITY           SKY/WX    TMP DP  RH WIND       PRES   REMARKS
LOUISVILLE/SDF MOCLDY    72  48  42 SE7       30.17S
LOUISVILLE/LOU PTCLDY    71  49  45 SE5       30.18S
FORT KNOX      PTCLDY    69  49  49 SE5       30.16S
$$

KYZ035>037-039>044-047>052-055>060-089>105-220000-
NORTHEAST KENTUCKY

CITY           SKY/WX    TMP DP  RH WIND       PRES   REMARKS
LEXINGTON      PTCLDY    68  48  48 SE7       30.22S
COVINGTON      MOCLDY    66  52  60 SE3       30.20S
FRANKFORT      MOCLDY    69  46  43 SE5       30.19F
$$

KYZ054-064>069-076>088-106>120-220000-
SOUTHEAST KENTUCKY

CITY           SKY/WX    TMP DP  RH WIND       PRES   REMARKS
JACKSON        CLOUDY    69  50  50 CALM      30.25F
LONDON         CLEAR     64  49  57 CALM      30.24S
SOMERSET       PTCLDY    64  46  52 CALM      30.24S
MIDDLESBORO    CLEAR     63  53  69 CALM      30.26S
MONTICELLO     PTCLDY    62  50  64 VRB3      30.25R
$$




USA.gov is the U.S. government's official web portal to all federal, state and local government web resources and services.